TimeMDT,TemperatureF,Dew PointF,Humidity,Sea Level PressureIn,VisibilityMPH,Wind Direction,Wind SpeedMPH,Gust SpeedMPH,PrecipitationIn,Events,Conditions,WindDirDegrees,DateUTC
12:58 AM,75.0,63.7,68,29.94,10.0,SE,3.5,-,N/A,,Clear,130,2013-07-26 06:58:00
1:58 AM,72.3,65.5,79,29.95,10.0,Calm,Calm,-,N/A,,Clear,0,2013-07-26 07:58:00
2:58 AM,70.9,64.6,80,29.94,10.0,NE,4.6,-,N/A,,Clear,50,2013-07-26 08:58:00
3:58 AM,70.7,64.4,80,29.96,10.0,NE,3.5,-,N/A,,Clear,40,2013-07-26 09:58:00
4:58 AM,69.4,64.8,85,29.96,10.0,WNW,3.5,-,N/A,,Clear,290,2013-07-26 10:58:00
5:58 AM,66.7,63.5,89,29.98,10.0,NNW,2.3,-,N/A,,Clear,330,2013-07-26 11:58:00
6:58 AM,67.1,63.9,89,29.99,10.0,North,5.8,-,N/A,,Clear,360,2013-07-26 12:58:00
7:58 AM,72.1,63.9,75,29.99,10.0,Calm,Calm,-,N/A,,Clear,0,2013-07-26 13:58:00
8:58 AM,78.8,62.4,57,29.99,10.0,Calm,Calm,-,N/A,,Clear,0,2013-07-26 14:58:00
9:58 AM,82.2,63.0,52,29.99,10.0,North,1.2,-,N/A,,Clear,360,2013-07-26 15:58:00
10:58 AM,84.2,62.4,48,29.98,10.0,Variable,5.8,-,N/A,,Clear,0,2013-07-26 16:58:00
11:58 AM,87.1,61.9,43,29.97,10.0,North,3.5,-,N/A,Thunderstorm,Clear,360,2013-07-26 17:58:00
12:58 PM,89.1,60.1,38,29.96,10.0,SW,3.5,-,N/A,,Scattered Clouds,230,2013-07-26 18:58:00
1:26 PM,87.8,62.6,43,30.18,10.0,East,16.1,20.7,N/A,,Light Drizzle,90,2013-07-26 19:26:00
1:31 PM,86.0,60.8,43,30.19,10.0,SE,17.3,-,N/A,Thunderstorm,Light Drizzle,130,2013-07-26 19:31:00
1:38 PM,80.6,68.0,65,30.19,6.0,South,8.1,27.6,N/A,Rain-Thunderstorm,Light Thunderstorms and Rain,170,2013-07-26 19:38:00
1:45 PM,77.0,66.2,69,30.18,4.0,Variable,6.9,27.6,N/A,Rain-Thunderstorm,Thunderstorms and Rain,0,2013-07-26 19:45:00
1:49 PM,77.0,64.4,65,30.17,5.0,NW,2.3,-,N/A,Rain-Thunderstorm,Light Thunderstorms and Rain,310,2013-07-26 19:49:00
1:55 PM,77.0,64.4,65,30.16,8.0,SE,2.3,-,N/A,Rain,Light Rain,130,2013-07-26 19:55:00
1:56 PM,77.0,62.6,61,30.16,8.0,ESE,4.6,-,N/A,Rain,Light Rain,110,2013-07-26 19:56:00
1:58 PM,76.3,63.7,65,29.97,8.0,ESE,5.8,-,0.04,Rain,Light Rain,110,2013-07-26 19:58:00
2:07 PM,78.8,64.4,61,30.14,10.0,ESE,6.9,-,N/A,,Scattered Clouds,110,2013-07-26 20:07:00
2:13 PM,78.8,64.4,61,30.14,10.0,ESE,4.6,-,N/A,,Scattered Clouds,120,2013-07-26 20:13:00
2:58 PM,84.0,60.1,44,29.92,10.0,ESE,2.3,-,0.00,,Clear,120,2013-07-26 20:58:00
3:58 PM,84.9,62.4,47,29.92,10.0,South,10.4,-,N/A,,Clear,170,2013-07-26 21:58:00
4:58 PM,87.8,56.8,35,29.91,10.0,SSE,11.5,-,N/A,,Clear,160,2013-07-26 22:58:00
5:58 PM,87.3,59.0,38,29.93,10.0,South,6.9,-,N/A,,Clear,180,2013-07-26 23:58:00
6:58 PM,86.2,59.7,41,29.93,10.0,SSW,10.4,-,N/A,,Clear,210,2013-07-27 00:58:00
7:58 PM,82.2,63.0,52,29.95,10.0,SW,4.6,-,N/A,,Clear,230,2013-07-27 01:58:00
8:58 PM,80.2,63.1,56,29.95,10.0,WSW,9.2,-,N/A,,Scattered Clouds,240,2013-07-27 02:58:00
9:58 PM,79.3,63.3,58,29.96,10.0,Calm,Calm,-,N/A,,Clear,0,2013-07-27 03:58:00
10:37 PM,78.8,62.6,57,30.20,10.0,SE,12.7,-,N/A,Thunderstorm,Thunderstorm,130,2013-07-27 04:37:00
10:38 PM,78.8,62.6,57,30.20,10.0,SE,12.7,-,N/A,Rain-Thunderstorm,Light Thunderstorms and Rain,130,2013-07-27 04:38:00
10:39 PM,78.8,62.6,57,30.20,10.0,East,16.1,21.9,N/A,Rain-Thunderstorm,Light Thunderstorms and Rain,90,2013-07-27 04:39:00
10:40 PM,78.8,62.6,57,30.20,9.0,East,17.3,21.9,N/A,Rain-Thunderstorm,Light Thunderstorms and Rain,80,2013-07-27 04:40:00
10:50 PM,75.2,60.8,61,30.21,5.0,ESE,5.8,23.0,N/A,Rain-Thunderstorm,Light Thunderstorms and Rain,110,2013-07-27 04:50:00
10:58 PM,75.2,62.6,65,30.00,5.0,ENE,8.1,23.0,0.04,Rain-Thunderstorm,Light Thunderstorms and Rain,60,2013-07-27 04:58:00
10:59 PM,73.4,64.4,73,30.21,5.0,ENE,9.2,-,N/A,Rain-Thunderstorm,Light Thunderstorms and Rain,60,2013-07-27 04:59:00
11:05 PM,73.4,62.6,69,30.21,10.0,NE,2.3,-,N/A,Rain-Thunderstorm,Light Rain,40,2013-07-27 05:05:00
11:11 PM,75.2,60.8,61,30.21,7.0,Variable,4.6,-,N/A,Rain-Thunderstorm,Light Thunderstorms and Rain,0,2013-07-27 05:11:00
11:14 PM,75.2,64.4,69,30.21,3.0,NW,9.2,-,N/A,Rain-Thunderstorm,Light Thunderstorms and Rain,310,2013-07-27 05:14:00
11:15 PM,75.2,64.4,69,30.21,2.5,NW,9.2,-,N/A,Rain-Thunderstorm,Heavy Thunderstorms and Rain,310,2013-07-27 05:15:00
11:22 PM,71.6,64.4,78,30.21,3.0,WNW,11.5,-,N/A,Rain-Thunderstorm,Light Thunderstorms and Rain,300,2013-07-27 05:22:00
11:25 PM,71.6,64.4,78,30.21,6.0,NW,12.7,-,N/A,Rain-Thunderstorm,Light Thunderstorms and Rain,310,2013-07-27 05:25:00
11:34 PM,71.6,62.6,73,30.22,10.0,NW,9.2,-,N/A,Rain-Thunderstorm,Light Thunderstorms and Rain,310,2013-07-27 05:34:00
11:42 PM,71.6,64.4,78,30.22,7.0,WNW,9.2,-,N/A,Rain-Thunderstorm,Light Thunderstorms and Rain,300,2013-07-27 05:42:00
11:43 PM,71.6,64.4,78,30.22,6.0,WNW,10.4,-,N/A,Rain-Thunderstorm,Thunderstorms and Rain,300,2013-07-27 05:43:00
11:51 PM,69.8,64.4,83,30.21,5.0,NNW,9.2,-,N/A,Rain-Thunderstorm,Light Thunderstorms and Rain,330,2013-07-27 05:51:00
11:53 PM,69.8,64.4,83,30.21,5.0,NNW,9.2,-,N/A,Rain-Thunderstorm,Light Thunderstorms and Rain,330,2013-07-27 05:53:00
11:56 PM,69.8,64.4,83,30.21,7.0,North,6.9,-,N/A,Rain-Thunderstorm,Thunderstorms and Rain,350,2013-07-27 05:56:00
11:57 PM,69.8,64.4,83,30.21,8.0,North,6.9,-,N/A,Rain,Rain,350,2013-07-27 05:57:00
11:58 PM,69.8,64.4,83,30.01,8.0,North,6.9,-,0.13,Rain,Rain,350,2013-07-27 05:58:00
11:59 PM,69.8,64.4,83,30.21,8.0,North,8.1,-,N/A,Rain,Light Rain,350,2013-07-27 05:59:00